Home   Weather   Hofuf   Past weeks
Flag for Saudi Arabia

Past Weather in Hofuf, Saudi Arabia — Yesterday and Last 2 Weeks

Now
70 °F

Clear.


Feels Like: 70 °F
Forecast: 85 / 65 °F
Wind: 7 mph from East

Location: Al Ahsa

Current Time: Mar 23, 2019 at 12:17:13 am

Latest Report: Mar 22, 2019 at 11:00 pm


Visibility: 10 mi

Pressure: 29.89 "Hg

Humidity: 60%

Dew Point: 55 °F

Location of HofufLocation

Past Weather in Hofuf — Graph

°F

Hofuf Temperature Yesterday

Maximum temperature yesterday: 84 °F (at 1:00 pm)
Minimum temperature yesterday: 63 °F (at 2:00 am)
Average temperature yesterday: 73 °F

High & Low Weather Summary for the Past Weeks

 TemperatureHumidityPressure
High86 °F (Mar 14, 3:00 pm)83% (Mar 16, 1:00 am)30.18 "Hg (Mar 16, 1:00 am)
Low50 °F (Mar 10, 2:00 am)10% (Mar 12, 4:00 pm)29.74 "Hg (Mar 17, 2:00 am)
Average69 °F32%29.99 "Hg
* Reported Mar 7 11:00 pm — Mar 22 11:00 pm, Hofuf. Weather by CustomWeather, © 2019

Note: Actual official high and low records may vary slightly from our data, if they occured in-between our weather recording intervals... More about our weather records

Advertising

Hofuf Weather History for the Previous 24 Hours

Scroll right to see more
 ConditionsComfort  
Time TempWeatherWind HumidityBarometerVisibility
11:00 pm
Fri, Mar 22
70 °FClear.7 mph60%29.89 "Hg10 mi
10:00 pm72 °FClear.9 mph57%29.89 "Hg10 mi
9:00 pm72 °FClear.10 mph57%29.89 "Hg10 mi
8:00 pm73 °FClear.9 mph47%29.89 "Hg10 mi
7:00 pm75 °FClear.13 mph39%29.89 "Hg5 mi
6:00 pm77 °FClear.14 mph34%29.86 "Hg4 mi
5:00 pm82 °FLow level haze.23 mph21%29.83 "Hg2 mi
4:00 pm82 °FScattered clouds.22 mph21%29.83 "Hg3 mi
3:00 pm84 °FPartly sunny.21 mph20%29.83 "Hg4 mi
2:00 pm84 °FScattered clouds.21 mph20%29.86 "Hg3 mi
1:00 pm84 °FScattered clouds.22 mph19%29.86 "Hg2 mi
12:00 pm82 °FLow level haze.21 mph20%29.89 "Hg3 mi
11:00 am81 °FScattered clouds.17 mph21%29.92 "Hg4 mi
10:00 am79 °FScattered clouds.18 mph24%29.92 "Hg5 mi
9:00 am75 °FSunny.15 mph31%29.95 "Hg10 mi
8:00 am72 °FPassing clouds.13 mph41%29.95 "HgN/A
7:00 am68 °FBroken clouds.16 mph49%29.98 "HgN/A
6:00 am64 °FBroken clouds.9 mph56%29.92 "HgN/A
5:00 am63 °FPartly cloudy.No wind59%29.89 "HgN/A
4:00 am64 °FPassing clouds.7 mph56%29.89 "HgN/A
3:00 am63 °FClear.5 mph59%29.86 "Hg10 mi
2:00 am63 °FClear.8 mph56%29.89 "Hg10 mi
1:00 am64 °FClear.No wind52%29.89 "Hg10 mi
12:00 am66 °FClear.5 mph43%29.89 "Hg10 mi
Weather by CustomWeather, © 2019

See weather overview